Location: Engelmannsreuth
(49.8125°N, 11.6497°E)
Time: 02:04:47
(UTC+00:00)

Okean O Rocket - Pass Details

Date: 17 February 2020
Orbit: 622 x 645 km, 98.2° (Epoch: 05 April)

Event Time Altitude Azimuth Distance (km) Brightness Sun altitude
Rises 04:54:58 0° 16° (NNE) 2,942 5.2 -14.5°
Reaches altitude 10° 04:57:12 10° 20° (NNE) 2,025 4.4 -14.1°
Maximum altitude 05:01:35 63° 102° (ESE) 704 2.1 -13.4°
Drops below altitude 10° 05:05:53 10° 184° (S) 1,996 4.2 -12.7°
Sets 05:08:05 0° 187° (S) 2,896 5.0 -12.4°
